Weather History for Albany, NY

Change the Weather History Date:

Tuesday, October 2, 2012

  Actual Average Record
Temperature  
Mean Temperature 56 °F 55 °F  
Max Temperature 61 °F 65 °F 85 °F (1927)
Min Temperature 51 °F 45 °F 30 °F (1972)
Degree Days  
Heating Degree Days 9 10  
Month to date heating degree days 16 20  
Since 1 July heating degree days 144 187  
Cooling Degree Days 0 0  
Month to date cooling degree days 0 0  
Year to date cooling degree days 814 594  
Growing Degree Days 6 (Base 50)    
Moisture  
Dew Point 54 °F    
Average Humidity 87    
Maximum Humidity 96    
Minimum Humidity 78    
Precipitation  
Precipitation 0.01 in 0.12 in 1.70 in (1883)
Month to date precipitation 0.01 0.24  
Year to date precipitation 28.68 29.69  
Snow  
Snow 0.00 in 0.00 in 0.00 in ()
Month to date snowfall 0.0 0.0  
Since 1 July snowfall 0.0 0.0  
Since 1 September snowfall 0.0 0.0  
Snow Depth 0.00 in    
Sea Level Pressure  
Sea Level Pressure 30.01 in    
Wind  
Wind Speed 3 mph (SSE)    
Max Wind Speed 14 mph    
Max Gust Speed 20 mph    
Visibility 10 miles    
Events Rain    
T = Trace of Precipitation, MM = Missing Value Source: NWS Daily Summary

Daily Weather History Graph

Daily Weather History Graph

Search for Another Location

Airport:

Trip Planner

Search our weather history database for the weather conditions in past years. The results will help you decide how hot, cold, wet, or windy it might be!

Date:

Astronomy

Oct. 02, 2012 Rise Set
Actual Time 6:54 AM EDT 6:33 PM EDT
Civil Twilight 6:25 AM EDT 7:02 PM EDT
Nautical Twilight 5:53 AM EDT 7:34 PM EDT
Astronomical Twilight 5:19 AM EDT 8:07 PM EDT
Moon 7:40 PM EDT (10/2) 9:23 AM EDT (10/2)
Length of Visible Light 12h 36m
Length of Day
11h 39m
Waning Gibbous, 94% of the Moon is Illuminated
Oct 2
Waning Gibbous
Oct 8
Last Quarter
Oct 15
New
Oct 21
First Quarter
Oct 29
Full

Hourly Weather History & Observations

Time (EDT) Temp. Dew Point Humidity Pressure Visibility Wind Dir Wind Speed Gust Speed Precip Events Conditions
12:51 AM 53.1 °F 51.1 °F 93% 29.96 in 10.0 mi Calm Calm - N/A   Overcast
1:51 AM 52.0 °F 50.0 °F 93% 29.97 in 10.0 mi Calm Calm - N/A   Mostly Cloudy
2:51 AM 53.6 °F 51.8 °F 94% 29.97 in 10.0 mi Calm Calm - N/A   Mostly Cloudy
3:51 AM 52.0 °F 50.0 °F 93% 29.99 in 10.0 mi Calm Calm - N/A   Overcast
4:51 AM 54.0 °F 52.0 °F 93% 29.99 in 10.0 mi Calm Calm - N/A   Overcast
5:51 AM 55.0 °F 52.0 °F 89% 29.98 in 10.0 mi SSE 4.6 mph - N/A   Overcast
6:51 AM 55.0 °F 52.0 °F 89% 30.00 in 10.0 mi SSE 3.5 mph - N/A   Overcast
7:51 AM 55.9 °F 52.0 °F 87% 30.01 in 10.0 mi SSE 5.8 mph - N/A   Overcast
8:51 AM 57.0 °F 52.0 °F 83% 30.02 in 10.0 mi SSE 3.5 mph - N/A   Overcast
9:51 AM 57.9 °F 52.0 °F 81% 30.03 in 10.0 mi Calm Calm - N/A   Overcast
10:51 AM 59.0 °F 52.0 °F 78% 30.03 in 10.0 mi South 4.6 mph - 0.00 in Rain Light Rain
11:51 AM 59.0 °F 53.1 °F 81% 30.03 in 10.0 mi Calm Calm - 0.00 in Rain Light Rain
12:51 PM 60.1 °F 55.0 °F 83% 30.03 in 10.0 mi ESE 3.5 mph - 0.00 in Rain Light Rain
1:51 PM 60.1 °F 55.9 °F 86% 30.01 in 10.0 mi SSE 5.8 mph - 0.01 in   Overcast
2:51 PM 61.0 °F 55.0 °F 81% 30.01 in 10.0 mi SSE 9.2 mph - N/A   Overcast
3:51 PM 60.1 °F 54.0 °F 80% 30.01 in 10.0 mi South 10.4 mph - N/A   Overcast
4:41 PM 60.8 °F 55.4 °F 82% 30.00 in 10.0 mi SSE 6.9 mph - N/A   Overcast
4:51 PM 60.1 °F 55.9 °F 86% 30.00 in 10.0 mi SSE 8.1 mph - N/A   Overcast
5:51 PM 60.1 °F 55.9 °F 86% 30.01 in 9.0 mi South 8.1 mph - 0.00 in   Light Drizzle
6:29 PM 60.8 °F 55.4 °F 82% 30.01 in 10.0 mi South 5.8 mph - 0.00 in   Overcast
6:51 PM 60.1 °F 55.9 °F 86% 30.02 in 10.0 mi South 4.6 mph - 0.00 in   Overcast
7:51 PM 60.1 °F 57.0 °F 90% 30.03 in 10.0 mi Calm Calm - N/A   Overcast
8:17 PM 60.8 °F 57.2 °F 88% 30.02 in 10.0 mi Calm Calm - N/A   Overcast
8:51 PM 60.1 °F 57.0 °F 90% 30.03 in 10.0 mi Calm Calm - N/A   Overcast
9:23 PM 60.8 °F 57.2 °F 88% 30.04 in 10.0 mi Calm Calm - N/A   Overcast
9:51 PM 60.1 °F 57.9 °F 93% 30.04 in 8.0 mi Calm Calm - 0.00 in   Light Drizzle
10:39 PM 60.8 °F 57.2 °F 88% 30.04 in 9.0 mi Calm Calm - 0.00 in   Overcast
10:51 PM 60.1 °F 57.9 °F 93% 30.05 in 9.0 mi Calm Calm - 0.00 in   Overcast
11:51 PM 60.1 °F 57.9 °F 93% 30.04 in 7.0 mi Calm Calm - N/A   Overcast